Time,TemperatureF,DewpointF,PressureIn,WindDirection,WindDirectionDegrees,WindSpeedMPH,WindSpeedGustMPH,Humidity,HourlyPrecipIn,Conditions,Clouds,dailyrainin,SoftwareType,DateUTC
2013-05-23 00:05:00,56.2,56.2,29.64,WSW,248,3.0,3.0,100,0.00,,,0.00,Wunderground v.1.15,2013-05-23 04:05:00,
2013-05-23 00:15:00,56.0,56.0,29.65,WSW,248,3.0,5.0,100,0.00,,,0.00,Wunderground v.1.15,2013-05-23 04:15:00,
2013-05-23 00:25:00,55.9,55.9,29.65,WSW,248,2.0,3.0,100,0.00,,,0.00,Wunderground v.1.15,2013-05-23 04:25:00,
2013-05-23 00:35:00,56.0,56.0,29.65,SW,223,4.0,7.0,100,0.00,,,0.00,Wunderground v.1.15,2013-05-23 04:35:00,
2013-05-23 00:45:00,55.9,55.9,29.65,SW,224,5.0,7.0,100,0.00,,,0.00,Wunderground v.1.15,2013-05-23 04:45:00,
2013-05-23 00:55:00,55.7,55.7,29.65,SW,229,5.0,5.0,100,0.00,,,0.00,Wunderground v.1.15,2013-05-23 04:55:00,
2013-05-23 01:05:00,55.6,55.6,29.65,WSW,244,4.0,5.0,100,0.00,,,0.00,Wunderground v.1.15,2013-05-23 05:05:00,
2013-05-23 01:15:00,54.8,54.8,29.65,WSW,244,2.0,2.0,100,0.00,,,0.00,Wunderground v.1.15,2013-05-23 05:15:00,
2013-05-23 01:25:00,53.8,53.8,29.66,WSW,244,0.0,0.0,100,0.00,,,0.00,Wunderground v.1.15,2013-05-23 05:25:00,
2013-05-23 01:35:00,53.2,53.2,29.66,WSW,244,0.0,0.0,100,0.00,,,0.00,Wunderground v.1.15,2013-05-23 05:35:00,
2013-05-23 01:45:00,52.8,52.8,29.66,WSW,244,0.0,2.0,100,0.00,,,0.00,Wunderground v.1.15,2013-05-23 05:45:00,
2013-05-23 01:55:00,52.5,52.5,29.66,WSW,244,2.0,2.0,100,0.00,,,0.00,Wunderground v.1.15,2013-05-23 05:55:00,
2013-05-23 02:05:00,52.3,52.3,29.66,WSW,244,0.0,0.0,100,0.00,,,0.00,Wunderground v.1.15,2013-05-23 06:05:00,
2013-05-23 02:15:00,52.5,52.5,29.66,WSW,244,2.0,5.0,100,0.00,,,0.00,Wunderground v.1.15,2013-05-23 06:15:00,
2013-05-23 02:25:00,52.8,52.8,29.65,WSW,239,5.0,5.0,100,0.00,,,0.00,Wunderground v.1.15,2013-05-23 06:25:00,
2013-05-23 02:35:00,52.9,52.9,29.65,SSW,212,4.0,5.0,100,0.00,,,0.00,Wunderground v.1.15,2013-05-23 06:35:00,
2013-05-23 02:45:00,52.6,52.6,29.65,SW,214,4.0,4.0,100,0.00,,,0.00,Wunderground v.1.15,2013-05-23 06:45:00,
2013-05-23 02:55:00,52.6,52.6,29.65,SW,214,3.0,4.0,100,0.00,,,0.00,Wunderground v.1.15,2013-05-23 06:55:00,
2013-05-23 03:05:00,52.8,52.8,29.65,SW,214,4.0,4.0,100,0.00,,,0.00,Wunderground v.1.15,2013-05-23 07:05:00,
2013-05-23 03:15:00,53.1,53.1,29.65,SW,214,3.0,3.0,100,0.00,,,0.00,Wunderground v.1.15,2013-05-23 07:15:00,
2013-05-23 03:25:00,53.3,53.3,29.65,SW,214,4.0,4.0,100,0.00,,,0.00,Wunderground v.1.15,2013-05-23 07:25:00,
2013-05-23 03:35:00,53.5,53.5,29.65,SW,214,3.0,3.0,100,0.00,,,0.00,Wunderground v.1.15,2013-05-23 07:35:00,
2013-05-23 03:45:00,53.6,53.6,29.65,SW,230,5.0,5.0,100,0.00,,,0.00,Wunderground v.1.15,2013-05-23 07:45:00,
2013-05-23 03:55:00,53.5,53.5,29.65,WSW,244,5.0,5.0,100,0.00,,,0.00,Wunderground v.1.15,2013-05-23 07:55:00,
2013-05-23 04:05:00,53.3,53.3,29.65,WSW,257,6.0,7.0,100,0.00,,,0.00,Wunderground v.1.15,2013-05-23 08:05:00,
2013-05-23 04:15:00,53.2,53.2,29.65,WSW,249,7.0,7.0,100,0.00,,,0.00,Wunderground v.1.15,2013-05-23 08:15:00,
2013-05-23 04:25:00,53.1,53.1,29.65,WSW,244,6.0,6.0,100,0.00,,,0.00,Wunderground v.1.15,2013-05-23 08:25:00,
2013-05-23 04:35:00,53.1,53.1,29.65,WSW,247,6.0,7.0,100,0.00,,,0.00,Wunderground v.1.15,2013-05-23 08:35:00,
2013-05-23 04:45:00,52.9,52.9,29.66,WSW,240,7.0,7.0,100,0.00,,,0.00,Wunderground v.1.15,2013-05-23 08:45:00,
2013-05-23 04:55:00,52.8,52.8,29.66,WSW,252,6.0,6.0,100,0.00,,,0.00,Wunderground v.1.15,2013-05-23 08:55:00,
2013-05-23 05:05:00,52.3,52.3,29.66,WSW,248,6.0,6.0,100,0.00,,,0.00,Wunderground v.1.15,2013-05-23 09:05:00,
2013-05-23 05:15:00,51.9,51.9,29.66,WSW,246,6.0,6.0,100,0.00,,,0.00,Wunderground v.1.15,2013-05-23 09:15:00,
2013-05-23 05:25:00,51.6,51.6,29.66,WSW,242,7.0,7.0,100,0.00,,,0.00,Wunderground v.1.15,2013-05-23 09:25:00,
2013-05-23 05:35:00,51.7,51.7,29.66,WSW,239,6.0,6.0,100,0.00,,,0.00,Wunderground v.1.15,2013-05-23 09:35:00,
2013-05-23 05:45:00,51.7,51.7,29.67,WSW,240,5.0,6.0,100,0.00,,,0.00,Wunderground v.1.15,2013-05-23 09:45:00,
2013-05-23 05:55:00,51.1,51.1,29.68,WSW,240,5.0,5.0,100,0.00,,,0.00,Wunderground v.1.15,2013-05-23 09:55:00,
2013-05-23 06:05:00,50.7,50.7,29.68,WSW,241,5.0,5.0,100,0.00,,,0.00,Wunderground v.1.15,2013-05-23 10:05:00,
2013-05-23 06:15:00,50.1,50.1,29.68,WSW,246,6.0,6.0,100,0.00,,,0.00,Wunderground v.1.15,2013-05-23 10:15:00,
2013-05-23 06:25:00,49.9,49.9,29.68,WSW,246,5.0,5.0,100,0.00,,,0.00,Wunderground v.1.15,2013-05-23 10:25:00,
2013-05-23 06:35:00,49.8,49.8,29.68,WSW,246,5.0,7.0,100,0.00,,,0.00,Wunderground v.1.15,2013-05-23 10:35:00,
2013-05-23 06:45:00,49.8,49.8,29.69,WSW,244,6.0,7.0,100,0.00,,,0.00,Wunderground v.1.15,2013-05-23 10:45:00,
2013-05-23 06:55:00,49.6,49.6,29.69,WSW,244,4.0,5.0,100,0.00,,,0.00,Wunderground v.1.15,2013-05-23 10:55:00,
2013-05-23 07:05:00,49.2,49.2,29.69,WSW,248,3.0,3.0,100,0.00,,,0.00,Wunderground v.1.15,2013-05-23 11:05:00,
2013-05-23 07:15:00,48.9,48.9,29.71,WSW,245,6.0,8.0,100,0.00,,,0.00,Wunderground v.1.15,2013-05-23 11:15:00,
2013-05-23 07:25:00,48.8,48.8,29.71,WSW,244,6.0,6.0,100,0.00,,,0.00,Wunderground v.1.15,2013-05-23 11:25:00,
2013-05-23 07:35:00,48.5,48.5,29.71,WSW,240,7.0,7.0,100,0.00,,,0.00,Wunderground v.1.15,2013-05-23 11:35:00,
2013-05-23 07:45:00,48.3,48.3,29.72,WSW,246,6.0,7.0,100,0.00,,,0.00,Wunderground v.1.15,2013-05-23 11:45:00,
2013-05-23 07:55:00,48.2,48.2,29.72,WSW,246,5.0,5.0,100,0.00,,,0.00,Wunderground v.1.15,2013-05-23 11:55:00,
2013-05-23 08:05:00,48.2,48.2,29.72,WSW,245,5.0,5.0,100,0.00,,,0.00,Wunderground v.1.15,2013-05-23 12:05:00,
2013-05-23 08:15:00,48.2,48.2,29.72,WSW,245,4.0,4.0,100,0.00,,,0.00,Wunderground v.1.15,2013-05-23 12:15:00,
2013-05-23 08:25:00,48.2,48.2,29.73,WSW,245,2.0,2.0,100,0.00,,,0.00,Wunderground v.1.15,2013-05-23 12:25:00,
2013-05-23 08:35:00,48.2,48.2,29.73,WSW,245,1.0,2.0,100,0.00,,,0.01,Wunderground v.1.15,2013-05-23 12:35:00,
2013-05-23 08:45:00,48.3,48.3,29.74,WSW,245,0.0,0.0,100,0.05,,,0.02,Wunderground v.1.15,2013-05-23 12:45:00,
2013-05-23 08:55:00,48.6,48.6,29.74,WSW,245,0.0,0.0,100,0.08,,,0.03,Wunderground v.1.15,2013-05-23 12:55:00,
2013-05-23 09:05:00,49.1,49.1,29.74,WSW,245,0.0,0.0,100,0.06,,,0.04,Wunderground v.1.15,2013-05-23 13:05:00,
2013-05-23 09:15:00,49.4,49.4,29.74,WSW,245,1.0,3.0,100,0.06,,,0.06,Wunderground v.1.15,2013-05-23 13:15:00,
2013-05-23 09:25:00,49.5,49.5,29.76,WSW,245,1.0,1.0,100,0.16,,,0.08,Wunderground v.1.15,2013-05-23 13:25:00,
2013-05-23 09:35:00,49.6,49.6,29.76,WSW,245,1.0,1.0,100,0.09,,,0.10,Wunderground v.1.15,2013-05-23 13:35:00,
2013-05-23 09:45:00,49.8,49.8,29.76,WSW,245,0.0,0.0,100,0.08,,,0.11,Wunderground v.1.15,2013-05-23 13:45:00,
2013-05-23 09:55:00,50.2,50.2,29.77,WSW,245,0.0,0.0,100,0.05,,,0.11,Wunderground v.1.15,2013-05-23 13:55:00,
2013-05-23 10:05:00,50.8,50.8,29.77,WSW,245,0.0,0.0,100,0.05,,,0.12,Wunderground v.1.15,2013-05-23 14:05:00,
2013-05-23 10:15:00,51.9,51.9,29.77,NW,304,1.0,1.0,100,0.00,,,0.13,Wunderground v.1.15,2013-05-23 14:15:00,
2013-05-23 10:25:00,53.2,53.2,29.78,North,355,3.0,3.0,100,0.00,,,0.13,Wunderground v.1.15,2013-05-23 14:25:00,
2013-05-23 10:35:00,54.1,54.1,29.78,NNW,342,4.0,4.0,100,0.04,,,0.14,Wunderground v.1.15,2013-05-23 14:35:00,
2013-05-23 10:45:00,54.7,54.7,29.79,NNW,343,4.0,4.0,100,0.05,,,0.15,Wunderground v.1.15,2013-05-23 14:45:00,
2013-05-23 10:55:00,54.1,54.1,29.80,NNE,27,6.0,7.0,100,0.04,,,0.16,Wunderground v.1.15,2013-05-23 14:55:00,
2013-05-23 11:05:00,52.2,52.2,29.80,NNE,22,8.0,8.0,100,0.04,,,0.16,Wunderground v.1.15,2013-05-23 15:05:00,
2013-05-23 11:15:00,51.6,51.6,29.82,NNE,30,8.0,8.0,100,0.00,,,0.17,Wunderground v.1.15,2013-05-23 15:15:00,
2013-05-23 11:25:00,51.6,51.6,29.83,NNW,341,8.0,8.0,100,0.00,,,0.17,Wunderground v.1.15,2013-05-23 15:25:00,
2013-05-23 11:35:00,51.6,51.6,29.83,NNE,30,7.0,12.0,100,0.00,,,0.17,Wunderground v.1.15,2013-05-23 15:35:00,
2013-05-23 11:45:00,51.3,51.3,29.84,North,360,7.0,10.0,100,0.00,,,0.18,Wunderground v.1.15,2013-05-23 15:45:00,
2013-05-23 11:55:00,51.3,51.3,29.85,NE,42,6.0,9.0,100,0.07,,,0.19,Wunderground v.1.15,2013-05-23 15:55:00,
2013-05-23 12:05:00,51.1,51.1,29.85,NNE,14,7.0,7.0,100,0.10,,,0.21,Wunderground v.1.15,2013-05-23 16:05:00,
2013-05-23 12:15:00,51.0,51.0,29.86,NNE,14,7.0,12.0,100,0.06,,,0.21,Wunderground v.1.15,2013-05-23 16:15:00,
2013-05-23 12:25:00,50.7,50.7,29.87,NNE,23,9.0,9.0,100,0.09,,,0.23,Wunderground v.1.15,2013-05-23 16:25:00,
2013-05-23 12:35:00,50.5,50.5,29.87,NE,37,8.0,9.0,100,0.06,,,0.24,Wunderground v.1.15,2013-05-23 16:35:00,
2013-05-23 12:45:00,50.7,50.7,29.88,NNE,15,9.0,9.0,100,0.10,,,0.25,Wunderground v.1.15,2013-05-23 16:45:00,
2013-05-23 12:55:00,51.4,51.4,29.89,NE,36,7.0,7.0,100,0.07,,,0.26,Wunderground v.1.15,2013-05-23 16:55:00,
2013-05-23 13:05:00,51.6,51.6,29.89,NNE,27,7.0,7.0,100,0.06,,,0.27,Wunderground v.1.15,2013-05-23 17:05:00,
2013-05-23 13:15:00,51.7,51.7,29.90,North,355,7.0,7.0,100,0.00,,,0.27,Wunderground v.1.15,2013-05-23 17:15:00,
2013-05-23 13:25:00,51.7,51.7,29.90,NNE,24,7.0,8.0,100,0.00,,,0.27,Wunderground v.1.15,2013-05-23 17:25:00,
2013-05-23 13:35:00,51.9,51.9,29.90,NNW,338,6.0,6.0,100,0.00,,,0.27,Wunderground v.1.15,2013-05-23 17:35:00,
2013-05-23 13:45:00,52.3,52.3,29.90,North,355,5.0,6.0,100,0.00,,,0.27,Wunderground v.1.15,2013-05-23 17:45:00,
2013-05-23 13:55:00,51.9,51.9,29.92,North,351,6.0,6.0,100,0.00,,,0.28,Wunderground v.1.15,2013-05-23 17:55:00,
2013-05-23 14:05:00,52.3,52.3,29.92,NNE,28,6.0,6.0,100,0.00,,,0.28,Wunderground v.1.15,2013-05-23 18:05:00,
2013-05-23 14:15:00,52.3,52.0,29.92,NNE,31,7.0,7.0,99,0.00,,,0.28,Wunderground v.1.15,2013-05-23 18:15:00,
2013-05-23 14:25:00,52.0,51.5,29.92,North,9,7.0,9.0,98,0.00,,,0.28,Wunderground v.1.15,2013-05-23 18:25:00,
2013-05-23 14:35:00,52.3,51.8,29.92,NNE,16,6.0,11.0,98,0.00,,,0.28,Wunderground v.1.15,2013-05-23 18:35:00,
2013-05-23 14:45:00,52.8,52.3,29.93,NW,313,7.0,7.0,98,0.00,,,0.28,Wunderground v.1.15,2013-05-23 18:45:00,
2013-05-23 14:55:00,52.3,51.2,29.94,NW,317,7.0,7.0,96,0.00,,,0.28,Wunderground v.1.15,2013-05-23 18:55:00,
2013-05-23 15:05:00,52.3,50.9,29.94,NNW,342,5.0,5.0,95,0.00,,,0.28,Wunderground v.1.15,2013-05-23 19:05:00,
2013-05-23 15:15:00,52.2,50.8,29.95,North,360,5.0,5.0,95,0.00,,,0.28,Wunderground v.1.15,2013-05-23 19:15:00,
2013-05-23 15:25:00,51.9,50.2,29.95,NW,326,6.0,10.0,94,0.00,,,0.28,Wunderground v.1.15,2013-05-23 19:25:00,
2013-05-23 15:35:00,52.2,50.5,29.95,North,355,6.0,7.0,94,0.00,,,0.28,Wunderground v.1.15,2013-05-23 19:35:00,
2013-05-23 15:45:00,52.2,49.9,29.96,North,351,7.0,9.0,92,0.00,,,0.28,Wunderground v.1.15,2013-05-23 19:45:00,
2013-05-23 15:55:00,51.0,48.2,29.97,NW,306,9.0,9.0,90,0.00,,,0.28,Wunderground v.1.15,2013-05-23 19:55:00,
2013-05-23 16:05:00,51.0,48.5,29.97,NNW,339,7.0,7.0,91,0.00,,,0.28,Wunderground v.1.15,2013-05-23 20:05:00,
2013-05-23 16:15:00,51.6,48.2,29.97,North,11,8.0,8.0,88,0.00,,,0.28,Wunderground v.1.15,2013-05-23 20:15:00,
2013-05-23 16:25:00,51.1,47.7,29.98,NNW,336,7.0,7.0,88,0.00,,,0.28,Wunderground v.1.15,2013-05-23 20:25:00,
2013-05-23 16:35:00,50.4,47.3,29.98,NW,326,9.0,9.0,89,0.00,,,0.28,Wunderground v.1.15,2013-05-23 20:35:00,
2013-05-23 16:45:00,49.9,47.1,29.99,NNW,348,7.0,7.0,90,0.00,,,0.28,Wunderground v.1.15,2013-05-23 20:45:00,
2013-05-23 16:55:00,49.9,47.1,30.00,NNW,334,6.0,9.0,90,0.00,,,0.28,Wunderground v.1.15,2013-05-23 20:55:00,
2013-05-23 17:05:00,48.9,46.1,30.00,NNW,348,9.0,12.0,90,0.00,,,0.28,Wunderground v.1.15,2013-05-23 21:05:00,
2013-05-23 17:15:00,48.3,45.2,30.01,NNW,334,8.0,8.0,89,0.00,,,0.28,Wunderground v.1.15,2013-05-23 21:15:00,
2013-05-23 17:25:00,48.8,45.7,30.02,North,360,6.0,6.0,89,0.00,,,0.28,Wunderground v.1.15,2013-05-23 21:25:00,
2013-05-23 17:35:00,49.2,45.8,30.02,NNW,346,6.0,6.0,88,0.00,,,0.28,Wunderground v.1.15,2013-05-23 21:35:00,
2013-05-23 17:45:00,49.6,45.6,30.02,NNE,23,6.0,6.0,86,0.00,,,0.28,Wunderground v.1.15,2013-05-23 21:45:00,
2013-05-23 17:55:00,49.9,45.6,30.04,NNW,340,5.0,5.0,85,0.00,,,0.28,Wunderground v.1.15,2013-05-23 21:55:00,
2013-05-23 18:05:00,49.9,45.6,30.04,NNW,330,5.0,6.0,85,0.00,,,0.28,Wunderground v.1.15,2013-05-23 22:05:00,
2013-05-23 18:15:00,49.6,44.6,30.05,NNW,327,7.0,9.0,83,0.00,,,0.28,Wunderground v.1.15,2013-05-23 22:15:00,
2013-05-23 18:25:00,49.4,44.5,30.05,NW,319,8.0,8.0,83,0.00,,,0.28,Wunderground v.1.15,2013-05-23 22:25:00,
2013-05-23 18:35:00,49.1,44.2,30.05,North,350,7.0,7.0,83,0.00,,,0.28,Wunderground v.1.15,2013-05-23 22:35:00,
2013-05-23 18:45:00,49.1,44.2,30.05,North,360,6.0,6.0,83,0.00,,,0.28,Wunderground v.1.15,2013-05-23 22:45:00,
2013-05-23 18:55:00,48.9,44.0,30.06,NNW,331,8.0,8.0,83,0.00,,,0.28,Wunderground v.1.15,2013-05-23 22:55:00,
2013-05-23 19:05:00,48.9,43.6,30.06,North,5,6.0,6.0,82,0.00,,,0.28,Wunderground v.1.15,2013-05-23 23:05:00,
2013-05-23 19:15:00,48.8,43.5,30.07,North,350,5.0,10.0,82,0.00,,,0.28,Wunderground v.1.15,2013-05-23 23:15:00,
2013-05-23 19:25:00,48.6,43.0,30.08,NNW,333,5.0,6.0,81,0.00,,,0.28,Wunderground v.1.15,2013-05-23 23:25:00,
2013-05-23 19:35:00,48.8,43.2,30.08,NNE,12,4.0,6.0,81,0.00,,,0.28,Wunderground v.1.15,2013-05-23 23:35:00,
2013-05-23 19:45:00,49.5,43.6,30.08,NNE,13,4.0,5.0,80,0.00,,,0.28,Wunderground v.1.15,2013-05-23 23:45:00,
2013-05-23 19:55:00,49.8,43.2,30.08,NW,314,4.0,7.0,78,0.00,,,0.28,Wunderground v.1.15,2013-05-23 23:55:00,
2013-05-23 20:05:00,49.9,43.3,30.08,North,5,3.0,7.0,78,0.00,,,0.28,Wunderground v.1.15,2013-05-24 00:05:00,
2013-05-23 20:15:00,49.8,42.2,30.09,NE,38,5.0,7.0,75,0.00,,,0.28,Wunderground v.1.15,2013-05-24 00:15:00,
2013-05-23 20:25:00,49.5,41.9,30.09,NNW,348,4.0,4.0,75,0.00,,,0.28,Wunderground v.1.15,2013-05-24 00:25:00,
2013-05-23 20:35:00,49.2,42.3,30.09,NNE,15,3.0,3.0,77,0.00,,,0.28,Wunderground v.1.15,2013-05-24 00:35:00,
2013-05-23 20:45:00,48.9,42.3,30.10,NNE,22,2.0,4.0,78,0.00,,,0.28,Wunderground v.1.15,2013-05-24 00:45:00,
2013-05-23 20:55:00,48.5,42.3,30.10,NNE,13,1.0,1.0,79,0.00,,,0.28,Wunderground v.1.15,2013-05-24 00:55:00,
2013-05-23 21:05:00,47.9,42.3,30.10,NNE,13,0.0,0.0,81,0.00,,,0.28,Wunderground v.1.15,2013-05-24 01:05:00,
2013-05-23 21:15:00,47.1,41.9,30.10,NNE,13,0.0,0.0,82,0.00,,,0.28,Wunderground v.1.15,2013-05-24 01:15:00,
2013-05-23 21:25:00,46.4,41.5,30.11,NNE,13,0.0,0.0,83,0.00,,,0.28,Wunderground v.1.15,2013-05-24 01:25:00,
2013-05-23 21:35:00,45.5,40.9,30.11,NNE,13,0.0,0.0,84,0.00,,,0.28,Wunderground v.1.15,2013-05-24 01:35:00,
2013-05-23 21:45:00,44.8,40.9,30.12,NNE,13,0.0,0.0,86,0.00,,,0.28,Wunderground v.1.15,2013-05-24 01:45:00,
2013-05-23 21:55:00,44.2,40.9,30.13,NNE,13,0.0,0.0,88,0.00,,,0.28,Wunderground v.1.15,2013-05-24 01:55:00,
2013-05-23 22:05:00,44.3,41.6,30.13,North,5,2.0,4.0,90,0.00,,,0.28,Wunderground v.1.15,2013-05-24 02:05:00,
2013-05-23 22:15:00,44.9,40.0,30.14,North,351,4.0,4.0,83,0.00,,,0.28,Wunderground v.1.15,2013-05-24 02:15:00,
2013-05-23 22:25:00,45.5,38.7,30.15,North,5,5.0,5.0,77,0.00,,,0.28,Wunderground v.1.15,2013-05-24 02:25:00,
2013-05-23 22:35:00,45.7,38.2,30.15,NNW,342,3.0,3.0,75,0.00,,,0.28,Wunderground v.1.15,2013-05-24 02:35:00,
2013-05-23 22:45:00,45.2,37.7,30.15,North,349,3.0,3.0,75,0.00,,,0.28,Wunderground v.1.15,2013-05-24 02:45:00,
2013-05-23 22:55:00,44.9,37.1,30.17,NNW,331,4.0,4.0,74,0.00,,,0.28,Wunderground v.1.15,2013-05-24 02:55:00,
2013-05-23 23:05:00,44.5,36.7,30.17,NNW,338,4.0,4.0,74,0.00,,,0.28,Wunderground v.1.15,2013-05-24 03:05:00,
2013-05-23 23:15:00,44.3,36.5,30.17,North,355,5.0,5.0,74,0.00,,,0.28,Wunderground v.1.15,2013-05-24 03:15:00,
2013-05-23 23:25:00,43.9,36.5,30.17,NNW,348,3.0,3.0,75,0.00,,,0.28,Wunderground v.1.15,2013-05-24 03:25:00,
2013-05-23 23:35:00,43.5,36.1,30.17,North,5,3.0,6.0,75,0.00,,,0.28,Wunderground v.1.15,2013-05-24 03:35:00,
2013-05-23 23:45:00,43.2,36.1,30.18,North,5,4.0,4.0,76,0.00,,,0.28,Wunderground v.1.15,2013-05-24 03:45:00,
2013-05-23 23:55:00,43.1,36.0,30.18,NNW,343,5.0,5.0,76,0.00,,,0.00,Wunderground v.1.15,2013-05-24 03:55:00,